Location: La Barresie
(44.7131°N, 2.3253°E)
Time: 22:36:32
(UTC+00:00)

Daily predictions for brighter satellites

Satellite Brightness Start Highest point End
(mag) Time Altitude Azimuth Time Altitude Azimuth Time Altitude Azimuth
Meteor 1-21 4.3 17:01:57 10° S 17:07:28 63° E 17:13:03 10° NNE
SL-14 R/B 4.4 17:06:11 10° SSW 17:09:48 45° WNW 17:13:28 10° N
CORIOLIS 4.2 17:04:33 10° SSE 17:09:58 80° ENE 17:15:26 10° NNW
Cosmos 1763 Rocket 3.5 17:05:23 10° S 17:10:34 71° ESE 17:15:42 10° NNE
Spot 4 Rocket 4.0 17:06:28 10° SSE 17:11:33 64° ENE 17:16:37 10° N
Cosmos 1758 4.2 17:07:54 10° NNW 17:11:41 53° W 17:15:26 10° S
YAOGAN 1 4.1 17:10:04 10° E 17:12:35 15° ENE 17:15:05 10° NNE
Cosmos 1733 Rocket 3.5 17:11:17 10° N 17:15:25 39° ENE 17:19:33 10° SE
Cosmos 540 Rocket 3.5 17:11:15 10° S 17:16:17 62° ESE 17:21:21 10° NNE
Cosmos 2322 4.2 17:13:21 10° SW 17:19:01 62° WNW 17:24:43 10° NNE
Cosmos 468 Rocket 4.2 17:15:12 10° S 17:20:13 52° ESE 17:25:14 10° NNE
USA 215 4.1 17:17:11 10° NE 17:23:13 41° NNW 17:29:15 10° W
Cosmos 2228 Rocket 3.4 17:19:48 10° SSE 17:24:08 47° E 17:28:30 10° NNE
Cosmos 2279 Rocket 4.0 17:21:29 10° N 17:27:41 71° E 17:33:50 10° SSE
Cosmos 841 Rocket 4.3 17:25:14 10° SSE 17:29:47 31° E 17:34:21 10° NE
Cosmos 1898 Rocket 3.9 17:25:11 10° N 17:30:11 41° ENE 17:35:11 10° SE
PSLV R/B 3.4 17:28:17 10° SSE 17:32:21 89° W 17:36:27 10° NNW
Aureole 1 Rocket 4.4 17:26:48 10° NNW 17:34:24 59° ENE 17:41:07 10° SE
Okean 1-7 3.6 17:34:01 10° SSE 17:37:52 34° E 17:41:43 10° NNE
SL-16 R/B 3.5 17:34:02 10° SE 17:38:02 20° E 17:40:55 14° ENE
Cosmos 1980 3.7 17:32:34 10° SSW 17:38:10 72° ESE 17:43:48 10° NNE
SMAP 4.0 17:36:54 10° S 17:41:26 52° W 17:46:00 10° NNW
Cosmos 1953 2.0 17:40:32 10° N 17:44:16 80° E 17:47:58 10° S
Lacrosse 5 4.5 17:43:04 10° WNW 17:47:05 24° WSW 17:51:05 10° S
NOSS 0 Rocket 4.1 17:41:58 10° SSW 17:48:06 75° WNW 17:54:17 10° NNE
SKYMED 2 3.6 17:46:21 10° NNE 17:50:40 60° E 17:54:57 10° S
Cosmos 1818 4.2 17:47:36 10° NNW 17:52:35 34° NE 17:56:19 16° E
ATLAS 2AS CENTAUR R/B 3.2 17:47:46 10° NNW 17:54:05 38° NE 17:59:05 15° E
ACS3 Solar Sail 2.0 17:49:01 10° SE 17:55:11 55° ENE 18:01:24 10° N
COSMOS 2428 3.9 17:50:13 10° SW 17:55:33 40° NW 18:00:55 10° NNE
Cosmos 2369 Rocket 3.4 17:51:34 10° N 17:55:40 20° NE 17:56:55 19° ENE
IGS 5A 4.1 17:52:13 10° S 17:56:10 57° W 18:00:08 10° NNW
Cosmos 372 Rocket 3.8 17:55:13 10° NNW 18:00:18 69° ENE 18:05:22 10° SSE
Cosmos 1174 4.3 17:57:07 10° NW 18:00:51 64° WSW 18:05:24 10° SSE
DNEPR-1 R/B 3.6 18:00:11 10° NW 18:04:58 85° SW 18:09:11 10° SSE
BREEZE-M DEB (TANK) 4.0 17:56:14 10° W 18:05:22 54° NNW 18:07:22 25° NE
Cosmos 1908 Rocket 3.8 18:04:21 10° N 18:08:31 44° ENE 18:12:38 10° SSE
Meteor 1-31 Rocket 2.4 18:08:03 10° SSE 18:11:35 69° ENE 18:15:09 10° N
Cosmos 1707 Rocket 4.4 18:08:34 10° SSW 18:12:53 52° WNW 18:17:15 10° N
EO 1 Delta rocket 3.7 18:09:51 10° N 18:14:34 83° E 18:19:16 10° S
Okean 2 4.2 18:12:04 10° SSW 18:15:54 50° WNW 18:19:46 10° N
Cosmos 2297 4.4 18:13:56 10° N 18:19:03 32° NE 18:20:17 30° ENE
Cosmos 1937 Rocket 3.3 18:15:09 10° NNW 18:20:19 77° ENE 18:25:29 10° SSE
CZ-2C R/B 4.0 18:22:18 22° N 18:22:18 22° N 18:23:43 10° N
Cosmos 2026 Rocket 4.2 18:15:24 10° SSE 18:21:29 49° E 18:27:34 10° NNE
Cosmos 858 Rocket 4.4 18:19:42 10° NNW 18:24:53 65° ENE 18:30:04 10° SSE
Cosmos 1825 4.3 18:23:08 10° SSE 18:23:11 10° SSE 18:23:11 10° SSE
BREEZE-M DEB (TANK) 3.8 18:10:36 10° WSW 18:26:36 81° NNW 18:28:56 33° ENE
Cosmos 1428 Rocket 4.4 18:22:06 10° S 18:28:17 76° E 18:34:27 10° NNE
Cosmos 1943 Rocket 3.2 18:23:40 10° NW 18:29:05 48° WSW 18:34:26 10° S
YAOGAN 3 4.4 18:25:21 10° SSE 18:29:34 73° ENE 18:33:50 10° N
RESURS DK-1 3.6 18:25:59 10° NW 18:29:46 41° WSW 18:33:33 10° S
Cosmos 2237 Rocket 3.1 18:26:55 10° SW 18:32:24 49° WNW 18:37:57 10° NNE
BlueWalker 3 2.7 18:30:53 10° NW 18:33:53 36° N 18:33:53 36° N
CZ-4B R/B 4.2 18:33:52 10° S 18:37:26 56° WSW 18:40:57 10° NNW
COSMO-SKYMED 1 3.7 18:34:35 10° N 18:38:42 42° WNW 18:42:48 10° SW
ISS -2.7 18:35:54 10° W 18:39:01 36° NNW 18:39:01 36° NNW
NOAA 6 4.3 18:34:13 10° S 18:39:17 68° WSW 18:44:25 10° NNW
Cosmos 2344 4.4 18:36:09 10° WSW 18:43:05 40° NW 18:48:48 15° NNE
Cosmos 2278 Rocket 4.2 18:38:31 10° NW 18:43:17 28° WSW 18:48:01 10° SSW
YAOGAN 1 3.1 18:43:50 10° S 18:48:01 57° W 18:52:15 10° NNW
CZ-4C R/B 2.6 18:46:24 10° WSW 18:50:41 49° NW 18:53:04 28° NNE
YAOGAN 11 4.0 18:51:30 44° N 18:52:48 79° WNW 18:57:05 10° SSW
ATLAS 5 CENTAUR R/B 1.9 18:52:15 10° SW 18:54:38 43° W 18:54:38 43° W
Meteor 1-24 Rocket 3.8 18:50:40 10° S 18:56:27 62° E 18:58:08 45° NE
SPOT 1/Viking Rocket 3.6 18:54:06 10° S 18:59:15 77° WSW 19:04:26 10° NNW
Cosmos 1703 Rocket 4.1 18:55:11 10° SSW 18:59:34 58° WNW 19:02:12 23° N
Resurs 1-3 3.9 18:59:31 10° S 19:03:47 64° WSW 19:08:06 10° NNW
USA 215 4.3 19:03:32 27° NNE 19:05:14 30° N 19:10:45 10° WNW
Meteor 2-5 Rocket 3.6 19:01:22 10° S 19:07:04 72° E 19:07:38 67° NE
Cosmos 1656 Rocket 3.6 19:08:13 10° NNW 19:13:44 81° WSW 19:14:50 58° S
Cosmos 1814 Rocket 4.3 19:16:02 10° SSW 19:20:11 57° SSW 19:20:11 57° SSW
SL-16 R/B 2.5 19:15:57 10° SW 19:21:33 64° WNW 19:22:50 50° N
Cosmos 1553 Rocket 4.3 19:19:17 10° N 19:23:51 52° N 19:23:51 52° N
ADEOS 4.4 19:29:31 41° NNW 19:29:31 41° NNW 19:32:52 10° NNW
Cosmos 1818 4.4 19:31:05 10° NW 19:36:16 46° WSW 19:37:01 43° SW
ACS3 Solar Sail 3.8 19:33:42 10° SSW 19:39:01 27° W 19:44:23 10° NW
Cosmos 2369 Rocket 2.8 19:34:42 10° NNW 19:38:45 48° NW 19:38:45 48° NW
ATLAS 2AS CENTAUR R/B 3.1 19:38:40 10° NW 19:45:15 56° WSW 19:46:35 48° SSW
Cosmos 839 Rocket 4.4 19:46:27 10° SW 19:52:33 61° WNW 19:52:33 61° WNW
